Year,Month,Day,Hour,Minute,Value (Times are PST for temperature in C)
2017,05,04,00,00,13.20
2017,05,04,00,01,13.10
2017,05,04,00,02,13.10
2017,05,04,00,03,13.10
2017,05,04,00,04,13.10
2017,05,04,00,05,13.10
2017,05,04,00,06,13.10
2017,05,04,00,07,13.00
2017,05,04,00,08,13.00
2017,05,04,00,09,13.00
2017,05,04,00,10,13.00
2017,05,04,00,11,13.00
2017,05,04,00,12,13.00
2017,05,04,00,13,13.00
2017,05,04,00,14,12.90
2017,05,04,00,15,12.90
2017,05,04,00,16,12.90
2017,05,04,00,17,12.90
2017,05,04,00,18,12.90
2017,05,04,00,19,12.90
2017,05,04,00,20,12.80
2017,05,04,00,21,12.80
2017,05,04,00,22,12.80
2017,05,04,00,23,12.80
2017,05,04,00,24,12.80
2017,05,04,00,25,12.80
2017,05,04,00,26,12.80
2017,05,04,00,27,12.80
2017,05,04,00,28,12.80
2017,05,04,00,29,12.80
2017,05,04,00,30,12.80
2017,05,04,00,31,12.70
2017,05,04,00,32,12.70
2017,05,04,00,33,12.70
2017,05,04,00,34,12.70
2017,05,04,00,35,12.70
2017,05,04,00,36,12.60
2017,05,04,00,37,12.60
2017,05,04,00,38,12.60
2017,05,04,00,39,12.60
2017,05,04,00,40,12.60
2017,05,04,00,41,12.60
2017,05,04,00,42,12.60
2017,05,04,00,43,12.60
2017,05,04,00,44,12.60
2017,05,04,00,45,12.60
2017,05,04,00,46,12.60
2017,05,04,00,47,12.50
2017,05,04,00,48,12.50
2017,05,04,00,49,12.50
2017,05,04,00,50,12.50
2017,05,04,00,51,12.50
2017,05,04,00,52,12.50
2017,05,04,00,53,12.50
2017,05,04,00,54,12.50
2017,05,04,00,55,12.40
2017,05,04,00,56,12.40
2017,05,04,00,57,12.40
2017,05,04,00,58,12.40
2017,05,04,00,59,12.30
2017,05,04,01,00,12.30
2017,05,04,01,01,12.30
2017,05,04,01,02,12.30
2017,05,04,01,03,12.40
2017,05,04,01,04,12.40
2017,05,04,01,05,12.30
2017,05,04,01,06,12.30
2017,05,04,01,07,12.30
2017,05,04,01,08,12.30
2017,05,04,01,09,12.30
2017,05,04,01,10,12.30
2017,05,04,01,11,12.30
2017,05,04,01,12,12.30
2017,05,04,01,13,12.30
2017,05,04,01,14,12.30
2017,05,04,01,15,12.30
2017,05,04,01,16,12.30
2017,05,04,01,17,12.30
2017,05,04,01,18,12.40
2017,05,04,01,19,12.40
2017,05,04,01,20,12.40
2017,05,04,01,21,12.40
2017,05,04,01,22,12.50
2017,05,04,01,23,12.50
2017,05,04,01,24,12.50
2017,05,04,01,25,12.50
2017,05,04,01,26,12.40
2017,05,04,01,27,12.40
2017,05,04,01,28,12.30
2017,05,04,01,29,12.30
2017,05,04,01,30,12.20
2017,05,04,01,31,12.20
2017,05,04,01,32,12.20
2017,05,04,01,33,12.20
2017,05,04,01,34,12.20
2017,05,04,01,35,12.20
2017,05,04,01,36,12.20
2017,05,04,01,37,12.20
2017,05,04,01,38,12.20
2017,05,04,01,39,12.20
2017,05,04,01,40,12.20
2017,05,04,01,41,12.10
2017,05,04,01,42,12.10
2017,05,04,01,43,12.10
2017,05,04,01,44,12.20
2017,05,04,01,45,12.20
2017,05,04,01,46,12.20
2017,05,04,01,47,12.20
2017,05,04,01,48,12.20
2017,05,04,01,49,12.20
2017,05,04,01,50,12.20
2017,05,04,01,51,12.20
2017,05,04,01,52,12.10
2017,05,04,01,53,12.10
2017,05,04,01,54,12.10
2017,05,04,01,55,12.10
2017,05,04,01,56,12.00
2017,05,04,01,57,12.00
2017,05,04,01,58,12.00
2017,05,04,01,59,12.00
2017,05,04,02,00,12.00
2017,05,04,02,01,12.00
2017,05,04,02,02,12.00
2017,05,04,02,03,12.10
2017,05,04,02,04,12.10
2017,05,04,02,05,12.10
2017,05,04,02,06,12.10
2017,05,04,02,07,12.10
2017,05,04,02,08,12.10
2017,05,04,02,09,12.10
2017,05,04,02,10,12.10
2017,05,04,02,11,12.10
2017,05,04,02,12,12.10
2017,05,04,02,13,12.10
2017,05,04,02,14,12.10
2017,05,04,02,15,12.10
2017,05,04,02,16,12.10
2017,05,04,02,17,12.00
2017,05,04,02,18,11.90
2017,05,04,02,19,11.90
2017,05,04,02,20,11.90
2017,05,04,02,21,11.90
2017,05,04,02,22,11.90
2017,05,04,02,23,11.80
2017,05,04,02,24,11.80
2017,05,04,02,25,11.80
2017,05,04,02,26,11.80
2017,05,04,02,27,11.80
2017,05,04,02,28,11.80
2017,05,04,02,29,11.80
2017,05,04,02,30,11.80
2017,05,04,02,31,11.80
2017,05,04,02,32,11.90
2017,05,04,02,33,11.90
2017,05,04,02,34,11.90
2017,05,04,02,35,12.00
2017,05,04,02,36,12.00
2017,05,04,02,37,12.00
2017,05,04,02,38,11.90
2017,05,04,02,39,11.90
2017,05,04,02,40,11.90
2017,05,04,02,41,11.90
2017,05,04,02,42,11.90
2017,05,04,02,43,11.80
2017,05,04,02,44,11.80
2017,05,04,02,45,11.80
2017,05,04,02,46,11.80
2017,05,04,02,47,11.80
2017,05,04,02,48,11.80
2017,05,04,02,49,11.80
2017,05,04,02,50,11.80
2017,05,04,02,51,11.80
2017,05,04,02,52,11.80
2017,05,04,02,53,11.80
2017,05,04,02,54,11.80
2017,05,04,02,55,11.70
2017,05,04,02,56,11.70
2017,05,04,02,57,11.70
2017,05,04,02,58,11.70
2017,05,04,02,59,11.70
2017,05,04,03,00,11.70
2017,05,04,03,01,11.70
2017,05,04,03,02,11.70
2017,05,04,03,03,11.70
2017,05,04,03,04,11.70
2017,05,04,03,05,11.70
2017,05,04,03,06,11.70
2017,05,04,03,07,11.70
2017,05,04,03,08,11.70
2017,05,04,03,09,11.70
2017,05,04,03,10,11.70
2017,05,04,03,11,11.70
2017,05,04,03,12,11.70
2017,05,04,03,13,11.70
2017,05,04,03,14,11.70
2017,05,04,03,15,11.70
2017,05,04,03,16,11.70
2017,05,04,03,17,11.70
2017,05,04,03,18,11.70
2017,05,04,03,19,11.70
2017,05,04,03,20,11.70
2017,05,04,03,21,11.60
2017,05,04,03,22,11.60
2017,05,04,03,23,11.60
2017,05,04,03,24,11.60
2017,05,04,03,25,11.60
2017,05,04,03,26,11.60
2017,05,04,03,27,11.60
2017,05,04,03,28,11.60
2017,05,04,03,29,11.60
2017,05,04,03,30,11.60
2017,05,04,03,31,11.60
2017,05,04,03,32,11.60
2017,05,04,03,33,11.60
2017,05,04,03,34,11.60
2017,05,04,03,35,11.60
2017,05,04,03,36,11.60
2017,05,04,03,37,11.60
2017,05,04,03,38,11.60
2017,05,04,03,39,11.60
2017,05,04,03,40,11.60
2017,05,04,03,41,11.60
2017,05,04,03,42,11.60
2017,05,04,03,43,11.60
2017,05,04,03,44,11.60
2017,05,04,03,45,11.60
2017,05,04,03,46,11.60
2017,05,04,03,47,11.60
2017,05,04,03,48,11.60
2017,05,04,03,49,11.60
2017,05,04,03,50,11.60
2017,05,04,03,51,11.50
2017,05,04,03,52,11.50
2017,05,04,03,53,11.50
2017,05,04,03,54,11.50
2017,05,04,03,55,11.50
2017,05,04,03,56,11.50
2017,05,04,03,57,11.40
2017,05,04,03,58,11.40
2017,05,04,03,59,11.40
2017,05,04,04,00,11.40
2017,05,04,04,01,11.40
2017,05,04,04,02,11.40
2017,05,04,04,03,11.40
2017,05,04,04,04,11.40
2017,05,04,04,05,11.40
2017,05,04,04,06,11.40
2017,05,04,04,07,11.40
2017,05,04,04,08,11.40
2017,05,04,04,09,11.30
2017,05,04,04,10,11.30
2017,05,04,04,11,11.30
2017,05,04,04,12,11.30
2017,05,04,04,13,11.30
2017,05,04,04,14,11.30
2017,05,04,04,15,11.30
2017,05,04,04,16,11.30
2017,05,04,04,17,11.40
2017,05,04,04,18,11.40
2017,05,04,04,19,11.40
2017,05,04,04,20,11.40
2017,05,04,04,21,11.40
2017,05,04,04,22,11.40
2017,05,04,04,23,11.40
2017,05,04,04,24,11.40
2017,05,04,04,25,11.40
2017,05,04,04,26,11.40
2017,05,04,04,27,11.40
2017,05,04,04,28,11.40
2017,05,04,04,29,11.40
2017,05,04,04,30,11.40
2017,05,04,04,31,11.40
2017,05,04,04,32,11.30
2017,05,04,04,33,11.30
2017,05,04,04,34,11.30
2017,05,04,04,35,11.30
2017,05,04,04,36,11.30
2017,05,04,04,37,11.30
2017,05,04,04,38,11.30
2017,05,04,04,39,11.30
2017,05,04,04,40,11.30
2017,05,04,04,41,11.30
2017,05,04,04,42,11.30
2017,05,04,04,43,11.30
2017,05,04,04,44,11.30
2017,05,04,04,45,11.30
2017,05,04,04,46,11.30
2017,05,04,04,47,11.30
2017,05,04,04,48,11.30
2017,05,04,04,49,11.30
2017,05,04,04,50,11.30
2017,05,04,04,51,11.30
2017,05,04,04,52,11.30
2017,05,04,04,53,11.30
2017,05,04,04,54,11.30
2017,05,04,04,55,11.30
2017,05,04,04,56,11.30
2017,05,04,04,57,11.30
2017,05,04,04,58,11.30
2017,05,04,04,59,11.30
2017,05,04,05,00,11.30
2017,05,04,05,01,11.30
2017,05,04,05,02,11.20
2017,05,04,05,03,11.20
2017,05,04,05,04,11.20
2017,05,04,05,05,11.20
2017,05,04,05,06,11.20
2017,05,04,05,07,11.20
2017,05,04,05,08,11.20
2017,05,04,05,09,11.20
2017,05,04,05,10,11.20
2017,05,04,05,11,11.20
2017,05,04,05,12,11.20
2017,05,04,05,13,11.10
2017,05,04,05,14,11.10
2017,05,04,05,15,11.10
2017,05,04,05,16,11.10
2017,05,04,05,17,11.10
2017,05,04,05,18,11.10
2017,05,04,05,19,11.10
2017,05,04,05,20,11.10
2017,05,04,05,21,11.10
2017,05,04,05,22,11.10
2017,05,04,05,23,11.10
2017,05,04,05,24,11.10
2017,05,04,05,25,11.10
2017,05,04,05,26,11.10
2017,05,04,05,27,11.10
2017,05,04,05,28,11.10
2017,05,04,05,29,11.10
2017,05,04,05,30,11.10
2017,05,04,05,31,11.00
2017,05,04,05,32,11.00
2017,05,04,05,33,11.00
2017,05,04,05,34,11.00
2017,05,04,05,35,11.00
2017,05,04,05,36,11.00
2017,05,04,05,37,11.00
2017,05,04,05,38,11.00
2017,05,04,05,39,11.00
2017,05,04,05,40,11.00
2017,05,04,05,41,10.90
2017,05,04,05,42,10.90
2017,05,04,05,43,10.90
2017,05,04,05,44,10.90
2017,05,04,05,45,10.90
2017,05,04,05,46,10.90
2017,05,04,05,47,10.90
2017,05,04,05,48,10.90
2017,05,04,05,49,10.90
2017,05,04,05,50,10.90
2017,05,04,05,51,10.90
2017,05,04,05,52,10.90
2017,05,04,05,53,11.00
2017,05,04,05,54,11.00
2017,05,04,05,55,11.00
2017,05,04,05,56,11.00
2017,05,04,05,57,11.00
2017,05,04,05,58,11.00
2017,05,04,05,59,11.00
2017,05,04,06,00,11.00
2017,05,04,06,01,11.00
2017,05,04,06,02,11.00
2017,05,04,06,03,11.00
2017,05,04,06,04,11.00
2017,05,04,06,05,11.00
2017,05,04,06,06,11.00
2017,05,04,06,07,11.00
2017,05,04,06,08,11.00
2017,05,04,06,09,11.00
2017,05,04,06,10,11.00
2017,05,04,06,11,11.00
2017,05,04,06,12,11.00
2017,05,04,06,13,11.00
2017,05,04,06,14,11.00
2017,05,04,06,15,10.90
2017,05,04,06,16,10.90
2017,05,04,06,17,10.90
2017,05,04,06,18,10.90
2017,05,04,06,19,10.90
2017,05,04,06,20,10.90
2017,05,04,06,21,10.80
2017,05,04,06,22,10.80
2017,05,04,06,23,10.80
2017,05,04,06,24,10.80
2017,05,04,06,25,10.80
2017,05,04,06,26,10.80
2017,05,04,06,27,10.80
2017,05,04,06,28,10.80
2017,05,04,06,29,10.80
2017,05,04,06,30,10.80
2017,05,04,06,31,10.80
2017,05,04,06,32,10.80
2017,05,04,06,33,10.80
2017,05,04,06,34,10.80
2017,05,04,06,35,10.80
2017,05,04,06,36,10.80
2017,05,04,06,37,10.80
2017,05,04,06,38,10.80
2017,05,04,06,39,10.80
2017,05,04,06,40,10.80
2017,05,04,06,41,10.80
2017,05,04,06,42,10.80
2017,05,04,06,43,10.70
2017,05,04,06,44,10.70
2017,05,04,06,45,10.70
2017,05,04,06,46,10.70
2017,05,04,06,47,10.80
2017,05,04,06,48,10.80
2017,05,04,06,49,10.80
2017,05,04,06,50,10.80
2017,05,04,06,51,10.80
2017,05,04,06,52,10.80
2017,05,04,06,53,10.80
2017,05,04,06,54,10.80
2017,05,04,06,55,10.80
2017,05,04,06,56,10.80
2017,05,04,06,57,10.80
2017,05,04,06,58,10.90
2017,05,04,06,59,10.90
2017,05,04,07,00,10.90
2017,05,04,07,01,10.90
2017,05,04,07,02,10.90
2017,05,04,07,03,11.00
2017,05,04,07,04,11.00
2017,05,04,07,05,11.00
2017,05,04,07,06,11.00
2017,05,04,07,07,11.10
2017,05,04,07,08,11.10
2017,05,04,07,09,11.10
2017,05,04,07,10,11.20
2017,05,04,07,11,11.20
2017,05,04,07,12,11.20
2017,05,04,07,13,11.30
2017,05,04,07,14,11.30
2017,05,04,07,15,11.40
2017,05,04,07,16,11.40
2017,05,04,07,17,11.40
2017,05,04,07,18,11.40
2017,05,04,07,19,11.50
2017,05,04,07,20,11.50
2017,05,04,07,21,11.60
2017,05,04,07,22,11.60
2017,05,04,07,23,11.60
2017,05,04,07,24,11.60
2017,05,04,07,25,11.60
2017,05,04,07,26,11.60
2017,05,04,07,27,11.60
2017,05,04,07,28,11.60
2017,05,04,07,29,11.60
2017,05,04,07,30,11.60
2017,05,04,07,31,11.60
2017,05,04,07,32,11.60
2017,05,04,07,33,11.60
2017,05,04,07,34,11.60
2017,05,04,07,35,11.60
2017,05,04,07,36,11.60
2017,05,04,07,37,11.70
2017,05,04,07,38,11.70
2017,05,04,07,39,11.70
2017,05,04,07,40,11.70
2017,05,04,07,41,11.80
2017,05,04,07,42,11.80
2017,05,04,07,43,11.80
2017,05,04,07,44,11.90
2017,05,04,07,45,12.00
2017,05,04,07,46,12.00
2017,05,04,07,47,12.10
2017,05,04,07,48,12.20
2017,05,04,07,49,12.30
2017,05,04,07,50,12.30
2017,05,04,07,51,12.40
2017,05,04,07,52,12.40
2017,05,04,07,53,12.50
2017,05,04,07,54,12.60
2017,05,04,07,55,12.60
2017,05,04,07,56,12.60
2017,05,04,07,57,12.70
2017,05,04,07,58,12.70
2017,05,04,07,59,12.80
2017,05,04,08,00,12.80
2017,05,04,08,01,12.80
2017,05,04,08,02,12.80
2017,05,04,08,03,12.90
2017,05,04,08,04,12.90
2017,05,04,08,05,12.90
2017,05,04,08,06,12.90
2017,05,04,08,07,12.90
2017,05,04,08,08,13.00
2017,05,04,08,09,12.90
2017,05,04,08,10,13.00
2017,05,04,08,11,13.00
2017,05,04,08,12,13.10
2017,05,04,08,13,13.10
2017,05,04,08,14,13.00
2017,05,04,08,15,13.00
2017,05,04,08,16,13.00
2017,05,04,08,17,13.00
2017,05,04,08,18,13.10
2017,05,04,08,19,13.10
2017,05,04,08,20,13.20
2017,05,04,08,21,13.30
2017,05,04,08,22,13.30
2017,05,04,08,23,13.30
2017,05,04,08,24,13.50
2017,05,04,08,25,13.80
2017,05,04,08,26,14.00
2017,05,04,08,27,14.00
2017,05,04,08,28,13.90
2017,05,04,08,29,13.70
2017,05,04,08,30,13.50
2017,05,04,08,31,13.40
2017,05,04,08,32,13.50
2017,05,04,08,33,13.50
2017,05,04,08,34,13.60
2017,05,04,08,35,13.50
2017,05,04,08,36,13.50
2017,05,04,08,37,13.60
2017,05,04,08,38,13.60
2017,05,04,08,39,13.70
2017,05,04,08,40,13.70
2017,05,04,08,41,13.80
2017,05,04,08,42,13.80
2017,05,04,08,43,13.80
2017,05,04,08,44,13.90
2017,05,04,08,45,13.90
2017,05,04,08,46,13.90
2017,05,04,08,47,14.00
2017,05,04,08,48,14.10
2017,05,04,08,49,14.20
2017,05,04,08,50,14.30
2017,05,04,08,51,14.30
2017,05,04,08,52,14.40
2017,05,04,08,53,14.60
2017,05,04,08,54,14.70
2017,05,04,08,55,14.80
2017,05,04,08,56,14.90
2017,05,04,08,57,14.90
2017,05,04,08,58,15.00
2017,05,04,08,59,15.00
2017,05,04,09,00,15.10
2017,05,04,09,01,15.20
2017,05,04,09,02,15.20
2017,05,04,09,03,15.20
2017,05,04,09,04,15.30
2017,05,04,09,05,15.30
2017,05,04,09,06,15.30
2017,05,04,09,07,15.30
2017,05,04,09,08,15.30
2017,05,04,09,09,15.30
2017,05,04,09,10,15.40
2017,05,04,09,11,15.40
2017,05,04,09,12,15.50
2017,05,04,09,13,15.60
2017,05,04,09,14,15.70
2017,05,04,09,15,15.80
2017,05,04,09,16,15.80
2017,05,04,09,17,15.90
2017,05,04,09,18,16.00
2017,05,04,09,19,15.90
2017,05,04,09,20,15.90
2017,05,04,09,21,15.90
2017,05,04,09,22,15.80
2017,05,04,09,23,15.80
2017,05,04,09,24,15.80
2017,05,04,09,25,15.80
2017,05,04,09,26,15.80
2017,05,04,09,27,15.70
2017,05,04,09,28,15.80
2017,05,04,09,29,15.90
2017,05,04,09,30,15.90
2017,05,04,09,31,15.90
2017,05,04,09,32,15.90
2017,05,04,09,33,15.90
2017,05,04,09,34,16.00
2017,05,04,09,35,16.10
2017,05,04,09,36,16.10
2017,05,04,09,37,16.20
2017,05,04,09,38,16.40
2017,05,04,09,39,16.50
2017,05,04,09,40,16.50
2017,05,04,09,41,16.60
2017,05,04,09,42,16.60
2017,05,04,09,43,16.60
2017,05,04,09,44,16.60
2017,05,04,09,45,16.60
2017,05,04,09,46,16.60
2017,05,04,09,47,16.60
2017,05,04,09,48,16.60
2017,05,04,09,49,16.60
2017,05,04,09,50,16.60
2017,05,04,09,51,16.60
2017,05,04,09,52,16.60
2017,05,04,09,53,16.60
2017,05,04,09,54,16.60
2017,05,04,09,55,16.60
2017,05,04,09,56,16.40
2017,05,04,09,57,16.40
2017,05,04,09,58,16.30
2017,05,04,09,59,16.30
2017,05,04,10,00,16.40
2017,05,04,10,01,16.40
2017,05,04,10,02,16.40
2017,05,04,10,03,16.50
2017,05,04,10,04,16.50
2017,05,04,10,05,16.50
2017,05,04,10,06,16.50
2017,05,04,10,07,16.60
2017,05,04,10,08,16.70
2017,05,04,10,09,16.70
2017,05,04,10,10,16.70
2017,05,04,10,11,16.80
2017,05,04,10,12,16.80
2017,05,04,10,13,16.80
2017,05,04,10,14,16.90
2017,05,04,10,15,16.90
2017,05,04,10,16,16.90
2017,05,04,10,17,16.90
2017,05,04,10,18,16.90
2017,05,04,10,19,17.00
2017,05,04,10,20,17.00
2017,05,04,10,21,17.10
2017,05,04,10,22,17.10
2017,05,04,10,23,17.10
2017,05,04,10,24,17.10
2017,05,04,10,25,17.10
2017,05,04,10,26,17.10
2017,05,04,10,27,17.10
2017,05,04,10,28,17.10
2017,05,04,10,29,17.20
2017,05,04,10,30,17.20
2017,05,04,10,31,17.20
2017,05,04,10,32,17.20
2017,05,04,10,33,17.40
2017,05,04,10,34,17.60
2017,05,04,10,35,17.70
2017,05,04,10,36,17.70
2017,05,04,10,37,17.70
2017,05,04,10,38,17.70
2017,05,04,10,39,17.60
2017,05,04,10,40,17.40
2017,05,04,10,41,17.20
2017,05,04,10,42,17.10
2017,05,04,10,43,17.00
2017,05,04,10,44,16.90
2017,05,04,10,45,16.90
2017,05,04,10,46,16.80
2017,05,04,10,47,16.80
2017,05,04,10,48,16.80
2017,05,04,10,49,16.90
2017,05,04,10,50,16.90
2017,05,04,10,51,16.90
2017,05,04,10,52,16.90
2017,05,04,10,53,16.90
2017,05,04,10,54,17.00
2017,05,04,10,55,17.20
2017,05,04,10,56,17.30
2017,05,04,10,57,17.30
2017,05,04,10,58,17.20
2017,05,04,10,59,17.00
2017,05,04,11,00,17.00
2017,05,04,11,01,16.90
2017,05,04,11,02,16.90
2017,05,04,11,03,16.90
2017,05,04,11,04,17.00
2017,05,04,11,05,17.10
2017,05,04,11,06,17.30
2017,05,04,11,07,17.50
2017,05,04,11,08,17.60
2017,05,04,11,09,17.70
2017,05,04,11,10,17.70
2017,05,04,11,11,17.80
2017,05,04,11,12,17.80
2017,05,04,11,13,17.80
2017,05,04,11,14,17.90
2017,05,04,11,15,18.00
2017,05,04,11,16,18.10
2017,05,04,11,17,18.20
2017,05,04,11,18,18.30
2017,05,04,11,19,18.30
2017,05,04,11,20,18.20
2017,05,04,11,21,18.10
2017,05,04,11,22,17.90
2017,05,04,11,23,17.90
2017,05,04,11,24,17.90
2017,05,04,11,25,17.90
2017,05,04,11,26,18.00
2017,05,04,11,27,18.10
2017,05,04,11,28,18.20
2017,05,04,11,29,18.20
2017,05,04,11,30,18.00
2017,05,04,11,31,17.90
2017,05,04,11,32,17.80
2017,05,04,11,33,17.80
2017,05,04,11,34,17.80
2017,05,04,11,35,17.80
2017,05,04,11,36,17.90
2017,05,04,11,37,18.00
2017,05,04,11,38,18.00
2017,05,04,11,39,18.00
2017,05,04,11,40,18.10
2017,05,04,11,41,18.10
2017,05,04,11,42,18.20
2017,05,04,11,43,18.30
2017,05,04,11,44,18.60
2017,05,04,11,45,18.70
2017,05,04,11,46,18.70
2017,05,04,11,47,18.60
2017,05,04,11,48,18.50
2017,05,04,11,49,18.40
2017,05,04,11,50,18.30
2017,05,04,11,51,18.20
2017,05,04,11,52,18.20
2017,05,04,11,53,18.20
2017,05,04,11,54,18.20
2017,05,04,11,55,18.20
2017,05,04,11,56,18.30
2017,05,04,11,57,18.40
2017,05,04,11,58,18.40
2017,05,04,11,59,18.40
2017,05,04,12,00,18.30
2017,05,04,12,01,18.20
2017,05,04,12,02,18.20
2017,05,04,12,03,18.30
2017,05,04,12,04,18.50
2017,05,04,12,05,18.50
2017,05,04,12,06,18.60
2017,05,04,12,07,18.60
2017,05,04,12,08,18.80
2017,05,04,12,09,18.80
2017,05,04,12,10,19.00
2017,05,04,12,11,19.00
2017,05,04,12,12,19.00
2017,05,04,12,13,18.90
2017,05,04,12,14,18.80
2017,05,04,12,15,18.80
2017,05,04,12,16,18.70
2017,05,04,12,17,18.80
2017,05,04,12,18,18.90
2017,05,04,12,19,19.00
2017,05,04,12,20,19.10
2017,05,04,12,21,19.20
2017,05,04,12,22,19.20
2017,05,04,12,23,19.20
2017,05,04,12,24,19.20
2017,05,04,12,25,19.20
2017,05,04,12,26,19.30
2017,05,04,12,27,19.30
2017,05,04,12,28,19.30
2017,05,04,12,29,19.50
2017,05,04,12,30,19.60
2017,05,04,12,31,19.60
2017,05,04,12,32,19.60
2017,05,04,12,33,19.70
2017,05,04,12,34,19.70
2017,05,04,12,35,19.70
2017,05,04,12,36,19.70
2017,05,04,12,37,19.70
2017,05,04,12,38,19.80
2017,05,04,12,39,19.80
2017,05,04,12,40,19.80
2017,05,04,12,41,19.70
2017,05,04,12,42,19.70
2017,05,04,12,43,19.60
2017,05,04,12,44,19.50
2017,05,04,12,45,19.50
2017,05,04,12,46,19.30
2017,05,04,12,47,19.30
2017,05,04,12,48,19.40
2017,05,04,12,49,19.50
2017,05,04,12,50,19.70
2017,05,04,12,51,19.80
2017,05,04,12,52,19.90
2017,05,04,12,53,19.90
2017,05,04,12,54,19.90
2017,05,04,12,55,19.90
2017,05,04,12,56,20.00
2017,05,04,12,57,20.10
2017,05,04,12,58,20.20
2017,05,04,12,59,20.20
2017,05,04,13,00,20.20
2017,05,04,13,01,20.20
2017,05,04,13,02,20.00
2017,05,04,13,03,19.90
2017,05,04,13,04,19.80
2017,05,04,13,05,19.80
2017,05,04,13,06,19.80
2017,05,04,13,07,19.90
2017,05,04,13,08,19.90
2017,05,04,13,09,19.90
2017,05,04,13,10,20.00
2017,05,04,13,11,20.20
2017,05,04,13,12,20.20
2017,05,04,13,13,20.20
2017,05,04,13,14,20.10
2017,05,04,13,15,20.00
2017,05,04,13,16,20.00
2017,05,04,13,17,20.00
2017,05,04,13,18,19.90
2017,05,04,13,19,20.00
2017,05,04,13,20,20.10
2017,05,04,13,21,20.20
2017,05,04,13,22,20.30
2017,05,04,13,23,20.50
2017,05,04,13,24,20.50
2017,05,04,13,25,20.50
2017,05,04,13,26,20.60
2017,05,04,13,27,20.60
2017,05,04,13,28,20.70
2017,05,04,13,29,20.70
2017,05,04,13,30,20.70
2017,05,04,13,31,20.70
2017,05,04,13,32,20.60
2017,05,04,13,33,20.40
2017,05,04,13,34,20.30
2017,05,04,13,35,20.30
2017,05,04,13,36,20.30
2017,05,04,13,37,20.20
2017,05,04,13,38,20.00
2017,05,04,13,39,20.10
2017,05,04,13,40,20.10
2017,05,04,13,41,20.20
2017,05,04,13,42,20.20
2017,05,04,13,43,20.20
2017,05,04,13,44,20.20
2017,05,04,13,45,20.10
2017,05,04,13,46,20.20
2017,05,04,13,47,20.20
2017,05,04,13,48,20.20
2017,05,04,13,49,20.20
2017,05,04,13,50,20.20
2017,05,04,13,51,20.20
2017,05,04,13,52,20.40
2017,05,04,13,53,20.50
2017,05,04,13,54,20.60
2017,05,04,13,55,20.60
2017,05,04,13,56,20.60
2017,05,04,13,57,20.70
2017,05,04,13,58,20.70
2017,05,04,13,59,20.80
2017,05,04,14,00,20.90
2017,05,04,14,01,21.10
2017,05,04,14,02,21.20
2017,05,04,14,03,21.30
2017,05,04,14,04,21.30
2017,05,04,14,05,21.30
2017,05,04,14,06,21.20
2017,05,04,14,07,21.20
2017,05,04,14,08,21.20
2017,05,04,14,09,21.20
2017,05,04,14,10,21.20
2017,05,04,14,11,21.20
2017,05,04,14,12,21.00
2017,05,04,14,13,20.90
2017,05,04,14,14,20.70
2017,05,04,14,15,20.60
2017,05,04,14,16,20.60
2017,05,04,14,17,20.60
2017,05,04,14,18,20.60
2017,05,04,14,19,20.60
2017,05,04,14,20,20.60
2017,05,04,14,21,20.80
2017,05,04,14,22,21.00
2017,05,04,14,23,21.20
2017,05,04,14,24,21.30
2017,05,04,14,25,21.40
2017,05,04,14,26,21.50
2017,05,04,14,27,21.50
2017,05,04,14,28,21.60
2017,05,04,14,29,21.60
2017,05,04,14,30,21.60
2017,05,04,14,31,21.70
2017,05,04,14,32,21.70
2017,05,04,14,33,21.70
2017,05,04,14,34,21.70
2017,05,04,14,35,21.70
2017,05,04,14,36,21.70
2017,05,04,14,37,21.70
2017,05,04,14,38,21.70
2017,05,04,14,39,21.70
2017,05,04,14,40,21.70
2017,05,04,14,41,21.70
2017,05,04,14,42,21.80
2017,05,04,14,43,21.80
2017,05,04,14,44,21.80
2017,05,04,14,45,21.60
2017,05,04,14,46,21.50
2017,05,04,14,47,21.40
2017,05,04,14,48,21.30
2017,05,04,14,49,21.30
2017,05,04,14,50,21.30
2017,05,04,14,51,21.20
2017,05,04,14,52,21.10
2017,05,04,14,53,21.10
2017,05,04,14,54,21.10
2017,05,04,14,55,21.00
2017,05,04,14,56,21.10
2017,05,04,14,57,21.20
2017,05,04,14,58,21.30
2017,05,04,14,59,21.30
2017,05,04,15,00,21.30
2017,05,04,15,01,21.30
2017,05,04,15,02,21.30
2017,05,04,15,03,21.40
2017,05,04,15,04,21.50
2017,05,04,15,05,21.60
2017,05,04,15,06,21.60
2017,05,04,15,07,21.70
2017,05,04,15,08,21.80
2017,05,04,15,09,21.80
2017,05,04,15,10,21.70
2017,05,04,15,11,21.70
2017,05,04,15,12,21.70
2017,05,04,15,13,21.90
2017,05,04,15,14,22.00
2017,05,04,15,15,22.00
2017,05,04,15,16,21.90
2017,05,04,15,17,21.90
2017,05,04,15,18,21.90
2017,05,04,15,19,21.70
2017,05,04,15,20,21.60
2017,05,04,15,21,21.60
2017,05,04,15,22,21.70
2017,05,04,15,23,21.90
2017,05,04,15,24,22.00
2017,05,04,15,25,22.10
2017,05,04,15,26,22.30
2017,05,04,15,27,22.50
2017,05,04,15,28,22.50
2017,05,04,15,29,22.50
2017,05,04,15,30,22.40
2017,05,04,15,31,22.40
2017,05,04,15,32,22.40
2017,05,04,15,33,22.50
2017,05,04,15,34,22.60
2017,05,04,15,35,22.60
2017,05,04,15,36,22.50
2017,05,04,15,37,22.50
2017,05,04,15,38,22.60
2017,05,04,15,39,22.60
2017,05,04,15,40,22.50
2017,05,04,15,41,22.50
2017,05,04,15,42,22.50
2017,05,04,15,43,22.50
2017,05,04,15,44,22.50
2017,05,04,15,45,22.60
2017,05,04,15,46,22.50
2017,05,04,15,47,22.40
2017,05,04,15,48,22.30
2017,05,04,15,49,22.40
2017,05,04,15,50,22.40
2017,05,04,15,51,22.30
2017,05,04,15,52,22.20
2017,05,04,15,53,22.20
2017,05,04,15,54,22.20
2017,05,04,15,55,22.20
2017,05,04,15,56,22.30
2017,05,04,15,57,22.50
2017,05,04,15,58,22.60
2017,05,04,15,59,22.70
2017,05,04,16,00,22.70
2017,05,04,16,01,22.80
2017,05,04,16,02,22.90
2017,05,04,16,03,23.00
2017,05,04,16,04,23.00
2017,05,04,16,05,22.90
2017,05,04,16,06,22.70
2017,05,04,16,07,22.60
2017,05,04,16,08,22.60
2017,05,04,16,09,22.60
2017,05,04,16,10,22.60
2017,05,04,16,11,22.60
2017,05,04,16,12,22.70
2017,05,04,16,13,22.70
2017,05,04,16,14,22.70
2017,05,04,16,15,22.80
2017,05,04,16,16,22.90
2017,05,04,16,17,22.90
2017,05,04,16,18,22.80
2017,05,04,16,19,22.70
2017,05,04,16,20,22.60
2017,05,04,16,21,22.70
2017,05,04,16,22,22.80
2017,05,04,16,23,22.80
2017,05,04,16,24,22.80
2017,05,04,16,25,22.80
2017,05,04,16,26,22.80
2017,05,04,16,27,22.80
2017,05,04,16,28,22.80
2017,05,04,16,29,22.90
2017,05,04,16,30,22.90
2017,05,04,16,31,22.90
2017,05,04,16,32,22.90
2017,05,04,16,33,22.90
2017,05,04,16,34,23.00
2017,05,04,16,35,23.10
2017,05,04,16,36,23.10
2017,05,04,16,37,23.00
2017,05,04,16,38,23.00
2017,05,04,16,39,22.90
2017,05,04,16,40,22.90
2017,05,04,16,41,23.00
2017,05,04,16,42,23.00
2017,05,04,16,43,22.90
2017,05,04,16,44,22.90
2017,05,04,16,45,22.90
2017,05,04,16,46,22.90
2017,05,04,16,47,22.90
2017,05,04,16,48,22.90
2017,05,04,16,49,22.90
2017,05,04,16,50,23.00
2017,05,04,16,51,23.00
2017,05,04,16,52,23.00
2017,05,04,16,53,23.00
2017,05,04,16,54,22.90
2017,05,04,16,55,22.90
2017,05,04,16,56,22.90
2017,05,04,16,57,22.90
2017,05,04,16,58,22.90
2017,05,04,16,59,22.90
2017,05,04,17,00,22.90
2017,05,04,17,01,22.90
2017,05,04,17,02,22.90
2017,05,04,17,03,22.90
2017,05,04,17,04,22.80
2017,05,04,17,05,22.80
2017,05,04,17,06,22.80
2017,05,04,17,07,22.80
2017,05,04,17,08,22.90
2017,05,04,17,09,22.90
2017,05,04,17,10,22.90
2017,05,04,17,11,22.80
2017,05,04,17,12,22.80
2017,05,04,17,13,22.80
2017,05,04,17,14,22.80
2017,05,04,17,15,22.80
2017,05,04,17,16,22.80
2017,05,04,17,17,22.80
2017,05,04,17,18,22.80
2017,05,04,17,19,22.70